Weather Roundup
Issued by NWS

Home | Current Version | Previous Version | Graphics & Text | Print | Product List | Glossary Off
Versions: 1 2 3 4 5 6 7 8 9 10 11 12 13 14 15 16 17 18 19 20 21 22 23 24 25 26 27 28 29 30 31 32 33 34 35 36 37 38 39 40 41 42 43 44 45 46 47 48 49 50

000
NZUS93 KARX 290910
HRRWXR

CURRENT HOURLY OBSERVATIONS ACROSS
MUCH OF THE UPPER MISSISSIPPI VALLEY
NATIONAL WEATHER SERVICE LA CROSSE WI
400 AM CDT TUE JUL 29 2014


...SOUTHEAST MINNESOTA...


CITY           SKY/WX    TMP DP  RH WIND       PRES   REMARKS
ROCHESTER      CLEAR     55  52  89 W8        30.13F
ROCHESTER/MAYO FAIR      58  53  81 W6        30.12F
WINONA         CLEAR     55  54  94 CALM      30.09S
AUSTIN         CLEAR     55  54  94 NW5       30.13F
ALBERT LEA     CLEAR     57  54  88 CALM      30.15S
DODGE CENTER   CLEAR     59  55  88 NW8       30.13S
PRESTON        CLEAR     55  55 100 W7        30.13S
OWATONNA       CLEAR     54  52  94 SW3       30.14S
FARIBAULT      CLEAR     63  54  72 NW5       30.14S
$$

...ELSEWHERE IN MINNESOTA...


CITY           SKY/WX    TMP DP  RH WIND       PRES   REMARKS
MINNEAPOLIS    CLEAR     61  56  83 NW6       30.12F
INTNL FALLS    PTCLDY    54  54 100 CALM      30.09F
DULUTH         PTCLDY    55  52  89 NW5       30.09F
RED WING       CLEAR     55  54  94 CALM      30.10S
REDWOOD FALLS  CLEAR     55  52  89 NW7       30.17S
MANKATO        PTCLDY    57  52  82 W5        30.15S
WORTHINGTON    CLEAR     52  48  87 NW7       30.21S
FAIRMONT       CLEAR     55  48  76 NW7       30.17S
$$

...SOUTHWEST WISCONSIN...


CITY           SKY/WX    TMP DP  RH WIND       PRES   REMARKS
LA CROSSE      CLEAR     58  54  86 SE3       30.07F
PRAIRIE DU CHI CLEAR     54  51  92 CALM      30.09S
BOSCOBEL       CLEAR     54  52  93 SW3       30.08F
LONE ROCK      CLEAR     59  54  83 W5        30.06F
PLATTEVILLE    CLEAR     52  50  93 W5        30.09F
FORT MC COY    CLEAR     50  49  95 CALM      30.08S
CAMP DOUGLAS   PTCLDY    52  52 100 W7        30.05F
VIROQUA        FAIR      55  55 100 W5        30.08F
WIS DELLS      MOCLDY    58  51  75 CALM      30.05S
$$

...ELSEWHERE IN WISCONSIN...


CITY           SKY/WX    TMP DP  RH WIND       PRES   REMARKS
MILWAUKEE      CLOUDY    63  53  70 W5        30.01F
MADISON        MOCLDY    61  52  72 NW6       30.04F
GREEN BAY      CLEAR     57  55  93 NW8       30.00R
EAU CLAIRE     CLEAR     56  53  90 SW3       30.07S
BLACK RVR FLS  FAIR      49  49 100 SW3       30.06S
MEDFORD        FOG       52  52 100 CALM      30.06S VSB 1
WAUSAU         PTCLDY    56  54  93 NW6       30.02F
WIS RAPIDS     CLEAR     55  53  93 CALM      30.05F
MARSHFIELD     CLEAR     57  53  86 NW7       30.05S
RICE LAKE      NOT AVBL
$$

...NORTHEAST IOWA...


CITY           SKY/WX    TMP DP  RH WIND       PRES   REMARKS
WATERLOO       CLEAR     56  54  93 W6        30.12F
DUBUQUE        CLEAR     56  52  86 W6        30.10F
DECORAH        CLEAR     55  54  94 CALM      30.10F
MASON CITY     CLEAR     53  52  96 NW8       30.16F
CHARLES CITY   CLEAR     54  54 100 W5        30.14S
OELWEIN        CLEAR     54  52  94 W6        30.13S
$$

...ELSEWHERE IN IOWA...


CITY           SKY/WX    TMP DP  RH WIND       PRES   REMARKS
DES MOINES     CLEAR     60  56  86 CALM      30.15F
IOWA CITY      CLEAR     57  55  93 CALM      30.13F
FORT DODGE     CLEAR     55  52  88 CALM      30.18S
MARSHALLTOWN   CLEAR     54  53  97 W6        30.14F
CEDAR RAPIDS   CLEAR     52  50  93 W7        30.11F
$$

...NORTHERN ILLINOIS...


CITY           SKY/WX    TMP DP  RH WIND       PRES   REMARKS
CHICAGO-OHARE  CLEAR     61  51  70 NW5       30.03S
DUPAGE         CLEAR     58  52  80 CALM      30.04S
CHICAGO-MIDWAY CLEAR     62  54  74 CALM      30.03S
MOLINE         CLEAR     55  52  89 CALM      30.10F
ROCKFORD       PTCLDY    59  51  75 CALM      30.08F
STERLING       CLEAR     54  50  87 NW6       30.08S
PEORIA         CLEAR     59  51  75 W3        30.10S
$$

NOTE: "FAIR" INDICATES FEW OR NO CLOUDS BELOW 12,000 FEET WITH NO
SIGNIFICANT WEATHER AND/OR OBSTRUCTIONS TO VISIBILITY. WIND
SPEEDS ARE IN MILES-PER-HOUR.



USA.gov is the U.S. government's official web portal to all federal, state and local government web resources and services.